Espaço - Ciências - Fenômenos Naturais
Meteógrafos Informações Meteorológicas em tempo real

Aeroporto de Congonhas

Histórico do Tempo
Temperatura atual: 23 graus 73 F    Umidade relativa: 41 %
Velocidade do vento: 05 nós 9 Km/h    Direção: 060 graus ENE
Ajuste do altímetro ..: 1022 HPA
Visibilidade: Ótima    Tempo presente: Céu Limpo

Observação

Data Hora BRTTempo°CUmidadePressãoVentoVisib.
21/07 - 17:56   Céu Limpo 23° 41% 1022 Este-nordeste/9 km/h OK
21/07 - 16:56   Céu Limpo 23° 41% 1022 Este-nordeste/9 km/h OK
21/07 - 15:56   Céu Limpo 23° 41% 1022 Norte-nordeste/10 km/h OK
21/07 - 14:56   Céu Limpo 22° 46% 1023 Norte-nordeste/9 km/h OK
21/07 - 13:56   Céu Limpo 21° 49% 1024 Nordeste/10 km/h CAVO
21/07 - 12:56   Céu Limpo 21° 49% 1024 Nordeste/10 km/h CAVO
21/07 - 11:56   Céu Limpo 20° 52% 1025 Nordeste/12 km/h CAVO
21/07 - 10:56   Céu Limpo 18° 55% 1026 Nordeste/16 km/h OK
21/07 - 09:56   Céu Limpo 17° 59% 1026 Este-nordeste/12 km/h CAVO
21/07 - 08:56   Céu Limpo 15° 67% 1025 Nordeste/12 km/h OK
21/07 - 07:56   Céu Limpo 13° 76% 1024 Nordeste/9 km/h OK
21/07 - 06:56   Céu Limpo 13° 76% 1024 Leste/7 km/h CAVO
21/07 - 05:56   Céu Limpo 13° 76% 1023 Sul-sudeste/5 km/h CAVO
21/07 - 04:56   Céu Limpo 15° 63% 1023 Norte-nordeste/9 km/h CAVO
21/07 - 03:56   Céu Limpo 15° 67% 1023 Norte-nordeste/12 km/h OK
21/07 - 02:56   Céu Limpo 15° 77% 1023 Nordeste/12 km/h OK
21/07 - 01:56   Céu Limpo 15° 77% 1024 Nordeste/10 km/h OK
21/07 - 00:56   Não Disponível 14° 82% 1024 Leste/3 km/h 9000
20/07 - 23:56   Céu Limpo 15° 82% 1024 /1 km/h OK
20/07 - 22:56   Quase sem nuvens 15° 82% 1025 /1 km/h 8000
20/07 - 21:56   Céu Limpo 15° 82% 1025 Sul/3 km/h OK
20/07 - 20:56   Céu Limpo 16° 77% 1024 Sul-sudeste/7 km/h OK
20/07 - 19:56   Céu Limpo 16° 77% 1024 Sul-sudeste/7 km/h OK
20/07 - 18:56   Céu Limpo 18° 72% 1024 Sudeste/10 km/h OK


Apolo11.com - Todos os direitos reservados - 2000 - 2019
Política de Privacidade   |     Termo de Uso e Licenciamento   |  -   Entre em Contato

"O homem é sábio quando procura a sabedoria. Quando pensa que a encontrou é burro." - Talmud